Regional Weather Roundup
Issued by NWS Kansas City/Pleasant Hill, MO

Home | Current Version | Previous Version | Text Only | Print | Product List | Glossary On
Versions: 1 2 3 4 5 6 7 8 9 10 11 12 13 14 15 16 17 18 19 20 21 22 23 24 25 26 27 28 29 30 31 32 33 34 35 36 37 38 39 40 41 42 43 44 45 46 47 48 49 50
297
ASUS43 KEAX 181710
RWREAX

WEATHER ROUNDUP FOR EASTERN KANSAS AND NORTHWEST MISSOURI
NATIONAL WEATHER SERVICE KANSAS CITY/PLEASANT HILL MO
1200 PM CDT FRI AUG 18 2017

KSZ040-057-103>105-MOZ028-029-037-043-181800-
...KANSAS CITY METROPOLITAN AREA...

CITY           SKY/WX    TMP DP  RH WIND       PRES   REMARKS
K.C. INTL      CLOUDY    81  67  62 SW14      29.96S
K.C. DOWNTOWN  CLOUDY    80  66  62 SW7       29.96S
LEES SUMMIT    CLOUDY    75  65  70 SW10      29.98F
OLATHE - IXD   CLOUDY    75  65  70 SW6       29.99S
OLATHE - OJC   CLOUDY    72  66  81 SW3       29.99F
LAWRENCE       SUNNY     81  67  62 S9        29.97S

$$

MOZ001>008-011>017-020>025-030>033-038>040-044>046-053-054-181800-
...NORTHERN AND CENTRAL MISSOURI...

CITY           SKY/WX    TMP DP  RH WIND       PRES   REMARKS
ST. JOSEPH     CLOUDY    81  69  67 SW10      29.93F
WARRENSBURG    PTSUNNY   73  64  73 S6        29.99F
WHITEMAN AFB   CLOUDY    78  67  69 W13       29.99R
CLINTON        CLOUDY    77  68  73 SW6       30.00F
SEDALIA        CLOUDY    80  68  66 SW8       30.01R
WARSAW         NOT AVBL
CHILLICOTHE      N/A     82  67  60 CALM      29.95R
KIRKSVILLE     CLOUDY    82  60  47 SE6       29.97S

$$

MOZ041-047>049-056>058-063>065-088>090-097-181800-
...EASTERN AND SOUTHERN MISSOURI...

CITY           SKY/WX    TMP DP  RH WIND       PRES   REMARKS
ST. LOUIS INTL MOSUNNY   84  63  49 NW7       29.98F
SPIRIT OF STL  MOSUNNY   82  64  54 S6        29.97F
COLUMBIA       SUNNY     84  65  52 SW7       29.99S
JEFFERSON CITY SUNNY     82  69  64 E3        29.98S
ROLLA          CLOUDY    81  64  56 W6        30.03S
OSAGE BEACH    CLOUDY    78  66  66 SW6       30.01F
SPRINGFIELD    MOSUNNY   79  73  82 S7        30.03F
BRANSON        PTSUNNY   81  72  74 SW5       30.06F
JOPLIN         PTSUNNY   82  77  84 SW7       30.02F HX  90
WEST PLAINS    SUNNY     83  57  41 W6        30.06F

$$

IAZ060-094-KSZ022-034>040-054-083-096-NEZ052-066-093-181800-
...KANSAS...SOUTHEAST NEBRASKA AND IOWA...

CITY           SKY/WX    TMP DP  RH WIND       PRES   REMARKS
TOPEKA         SUNNY     86  66  51 S10       29.95F
MANHATTAN      SUNNY     85  66  53 W7        29.96F
EMPORIA        SUNNY     81  65  58 SW8       29.98S
CHANUTE        CLOUDY    81  73  76 MISG      29.99S
WICHITA        MOSUNNY   85  66  53 CALM      29.99R
OMAHA          MOSUNNY   83  60  45 N10       29.93F
LINCOLN        SUNNY     81  63  54 MISG      29.96F
FALLS CITY     SUNNY     86  63  45 NW13      29.92S
LAMONI         CLOUDY    79  65  62 S13G18    29.93S
DES MOINES     MOSUNNY   81  64  56 SW8       29.91F

$$





USA.gov is the U.S. government's official web portal to all federal, state and local government web resources and services.